User: anonymous   Login
Location: Unspecified
(0.0000°N, 0.0000°E)
Time: 11:27:03
(UTC+00:00)
Language:

CASSIOPE - Orbit

View from above orbital plane
View from above orbital plane
View from above satellite
View from above satellite

Ground track
Ground track

The orbit data is extracted from the following two-line orbital elements,

1 39265U 13055A   18267.56988189 +.00006704 +00000-0 +19353-3 0  9998
2 39265 080.9660 253.2814 0674075 345.5391 012.7291 14.26160161257633
Epoch (UTC): 24 September 2018 13:40:37
Eccentricity: 0.0674075
inclination: 80.9660°
perigee height: 320 km
apogee height: 1289 km
right ascension of ascending node: 253.2814°
argument of perigee: 345.5391°
revolutions per day: 14.26160161
mean anomaly at epoch: 12.7291°
orbit number at epoch: 25763

The dashed part of the orbit path shows where the satellite is in the earth's shadow,  

DLR